Location: Oshawa
(43.9000°N, 78.8670°W)
Time: 21:01:58
(UTC-05:00)

Explorer 11/Cluster Stage 4 - Visible Passes

Search period start: 07 February 2016 00:00
Search period end: 17 February 2016 00:00
Orbit: 467 x 1267 km, 28.8° (Epoch: 07 February)

Date Brightness Start Highest point End Pass type
(mag) Time Alt. Az. Time Alt. Az. Time Alt. Az.
07 Feb 9.2 06:42:36 10° SSW 06:47:29 21° SSE 06:52:55 10° ESE visible
08 Feb 9.1 06:33:05 10° SSW 06:37:52 21° SSE 06:43:13 10° ESE visible
09 Feb 9.2 04:39:19 10° SSE 04:40:37 11° SSE 04:41:56 10° SE visible
09 Feb 9.0 06:23:38 10° SW 06:28:15 21° S 06:33:30 10° SE visible
10 Feb 9.1 04:30:12 11° SSE 04:31:01 11° SSE 04:32:46 10° SE visible
10 Feb 8.9 06:14:14 10° SW 06:18:40 21° S 06:23:44 10° SE visible
11 Feb 9.0 04:21:36 12° SSE 04:21:36 12° SSE 04:23:25 10° SE visible
11 Feb 8.8 06:04:53 10° SW 06:09:07 20° S 06:13:56 10° SE visible
12 Feb 9.1 04:12:57 11° SSE 04:12:57 11° SSE 04:13:57 10° SE visible
12 Feb 8.7 05:55:37 10° SW 05:59:34 19° S 06:04:06 10° SE visible
13 Feb 9.2 04:04:16 10° SE 04:04:16 10° SE 04:04:25 10° SE visible
13 Feb 8.6 05:46:30 10° SW 05:50:03 18° S 05:54:13 10° SE visible
14 Feb 8.5 05:37:48 12° SSW 05:40:33 17° S 05:44:18 10° SE visible
15 Feb 8.5 05:29:06 13° SSW 05:31:04 15° S 05:34:19 10° SSE visible
16 Feb 8.5 05:20:25 13° SSW 05:21:36 13° S 05:24:14 10° SSE visible
